Wind_Speed
15 17 19 20 23 24 27 29 32 35 38 40 40 39 40 40 39 38 39 38 38 38 36 33 32 31 28 27 24 21 22 22 20 23 24 19 19 17 17 20 21 20 22 23 27
12 13 15 17 18 20 22 22 23 27 31 34 37 39 40 40 40 41 41 41 40 41 39 36 35 33 32 30 28 27 26 22 22 24 23 21 20 19 16 11 12 15 17 19 23
13 12 13 14 14 16 18 19 19 20 22 26 29 33 35 37 38 38 40 41 42 44 41 38 37 36 35 33 32 30 30 26 24 23 24 21 18 17 16 8 8 11 13 16 19
14 13 12 13 13 13 15 17 17 17 17 18 19 22 25 29 32 35 38 41 42 43 43 42 41 40 39 37 34 34 33 31 28 25 23 25 17 15 10 6 8 9 9 13 14
15 15 13 13 12 13 14 14 14 15 15 16 16 17 19 20 23 26 29 33 37 41 44 41 41 43 42 40 39 37 37 36 33 30 25 26 19 18 14 10 10 11 10 7 9
17 16 15 13 14 13 13 13 12 12 12 12 12 13 14 16 18 21 23 26 29 32 36 40 41 41 43 44 43 41 41 40 39 36 33 30 24 25 20 14 12 12 10 3 8
19 18 17 15 14 12 11 11 10 10 10 10 11 12 13 14 15 16 19 21 24 26 29 31 32 35 40 42 44 44 43 44 43 42 39 37 36 34 32 21 19 12 10 5 5
20 19 17 16 13 12 11 9 8 7 8 8 8 8 8 10 12 13 16 19 21 24 26 28 29 30 31 34 38 42 44 44 44 46 44 42 39 38 32 23 24 17 12 8 9
19 20 17 15 12 11 10 10 8 7 4 2 2 2 4 6 7 9 11 13 16 20 24 27 29 29 29 29 31 33 37 41 44 45 46 46 43 42 38 33 32 28 24 17 14
18 20 16 14 13 12 12 10 8 7 5 3 1 1 3 5 6 7 8 11 14 17 19 22 24 27 30 31 31 31 31 32 36 41 43 44 47 47 43 38 35 31 27 24 23
20 18 16 15 13 14 13 12 10 8 5 4 3 1 6 8 7 7 9 11 12 14 16 18 20 22 26 28 31 34 34 31 31 32 34 39 43 45 46 44 37 33 31 28 29
22 20 19 18 18 17 15 12 10 7 6 3 4 5 10 12 12 12 12 12 13 16 20 20 21 22 22 22 26 30 31 34 35 33 32 33 35 39 44 43 42 40 34 31 30
26 23 21 20 18 15 13 11 9 7 7 8 9 10 12 14 15 15 14 14 15 17 20 20 19 22 23 23 22 23 28 31 31 34 36 35 33 33 35 39 41 41 39 34 34
23 20 18 16 15 13 10 8 6 5 6 8 10 10 12 14 15 17 18 19 19 19 20 21 23 21 21 25 25 25 24 25 29 33 33 34 37 34 31 32 35 40 39 38 39
19 16 13 10 9 7 5 3 3 5 7 9 11 13 13 13 14 16 18 19 21 21 20 22 23 25 24 25 26 29 28 28 26 27 29 31 34 35 35 30 30 35 42 43 44
14 12 8 7 5 3 3 4 6 9 9 12 14 16 19 19 19 19 19 18 19 20 21 23 24 25 25 30 28 30 30 30 29 28 26 27 31 34 35 35 29 27 41 47 49
9 8 7 5 4 3 5 7 10 12 14 15 17 19 21 23 24 23 22 21 21 20 24 27 28 30 28 27 32 32 32 33 34 32 28 31 29 29 32 36 34 28 29 43 51
7 6 4 2 3 5 7 12 16 19 21 23 25 27 27 27 26 26 28 27 26 25 25 27 26 26 29 31 29 35 34 34 34 35 32 32 31 26 31 35 38 34 32 33 40
9 8 8 9 10 10 13 17 21 24 27 30 30 31 32 33 31 31 30 30 30 30 30 29 28 29 32 32 29 33 38 36 35 38 37 34 31 31 31 31 37 38 36 37 36
14 13 15 16 17 19 21 23 27 31 34 36 37 37 36 37 37 35 33 34 33 35 35 33 30 29 31 34 30 29 34 38 38 38 39 40 35 34 33 33 33 37 40 37 41
19 21 23 24 25 27 29 31 34 37 39 40 41 42 42 41 41 39 39 38 37 37 38 38 34 30 31 33 29 29 33 36 39 37 37 38 38 36 35 33 33 36 37 40 37
26 28 29 31 33 35 37 39 41 44 45 44 44 45 47 46 45 44 44 43 42 41 40 42 40 35 31 30 32 29 31 36 36 36 39 41 38 38 38 37 37 37 37 40 41
32 34 36 39 40 42 44 46 47 47 47 48 49 49 50 50 50 50 50 49 50 48 44 45 43 42 35 30 32 28 29 34 38 36 40 41 41 39 41 42 42 40 39 40 43
39 41 43 44 47 48 49 51 50 50 50 52 53 55 55 54 55 55 58 57 57 55 53 46 45 43 41 36 29 33 29 33 36 39 41 42 38 37 38 38 40 43 43 42 43
43 45 47 49 51 52 52 54 55 55 57 57 57 58 59 60 57 56 57 57 58 55 53 47 43 46 42 39 35 32 34 31 35 40 39 41 43 38 34 38 39 42 44 46 44
46 48 49 52 53 55 57 58 59 60 61 61 63 63 62 59 58 61 59 58 57 53 54 53 48 51 43 42 39 31 36 34 32 37 41 40 41 41 36 35 36 37 41 44 48
49 52 53 54 57 59 61 62 64 65 68 68 67 64 60 62 65 65 62 64 62 60 57 54 55 54 47 47 45 32 36 38 35 37 43 41 44 43 39 36 38 35 35 38 42
Wind_Direction
226 218 217 217 215 217 220 220 223 226 228 229 232 234 237 240 242 244 244 246 249 251 252 253 253 255 249 248 241 244 233 239 253 235 243 251 260 283 309 321 330 342 346 12 14
199 196 204 208 210 213 217 216 219 224 227 229 233 235 237 240 243 245 246 247 248 250 251 252 252 251 250 244 241 241 241 241 249 242 242 246 258 282 295 317 330 342 345 15 16
192 190 193 192 197 202 207 212 214 218 223 227 231 234 237 239 241 244 246 248 248 250 251 251 251 251 251 247 243 242 244 243 245 248 248 251 258 269 276 299 334 331 349 11 20
191 186 187 185 183 184 193 203 212 218 221 223 225 230 235 239 242 244 246 247 248 250 249 247 249 250 250 250 247 242 243 246 248 244 254 247 256 248 248 250 312 316 327 360 18
193 189 185 185 181 185 186 191 200 212 220 224 227 228 232 235 237 242 245 248 249 251 251 249 247 248 249 249 249 246 243 244 246 249 235 245 247 240 242 253 281 303 296 353 6
196 189 188 186 185 186 187 188 192 201 211 216 220 225 227 232 238 242 245 249 253 255 256 253 249 248 249 249 247 246 245 245 244 245 245 225 235 240 239 252 264 270 278 312 338
201 193 188 186 184 184 187 188 192 204 216 223 226 229 231 236 241 243 246 249 253 256 260 261 259 253 250 250 249 249 249 247 244 245 244 243 240 239 243 254 251 255 241 251 282
202 195 188 184 180 178 181 180 182 199 217 231 241 244 242 248 254 253 251 250 251 254 257 260 260 259 256 252 252 250 249 247 246 245 245 246 248 247 249 243 227 232 236 247 255
197 192 182 177 170 160 146 143 154 163 159 167 202 240 244 241 249 256 258 256 255 255 255 255 256 258 259 257 255 254 251 249 247 246 245 244 247 249 249 240 236 245 249 253 251
181 180 168 161 154 139 127 129 128 117 129 139 172 261 270 261 257 256 260 260 262 261 259 258 260 259 257 255 254 255 256 255 252 248 247 246 245 246 247 245 244 243 241 243 246
152 156 155 145 130 114 110 110 108 105 97 96 90 282 278 298 317 304 287 278 268 262 261 262 261 260 258 255 254 251 251 252 253 253 251 245 242 244 244 242 240 236 240 241 242
130 129 123 113 104 106 107 103 93 85 92 38 13 334 319 334 335 325 302 291 288 277 273 269 268 267 264 261 255 251 251 249 248 249 249 249 246 243 243 242 240 237 235 236 236
113 113 110 107 106 104 103 97 87 67 21 33 13 1 345 345 339 330 325 313 297 287 283 284 279 272 270 265 261 254 249 250 250 248 246 248 249 247 244 241 235 233 231 231 234
112 111 108 105 104 98 93 83 68 48 5 357 352 347 338 340 335 329 323 319 314 303 297 291 282 277 269 265 262 258 254 249 246 245 243 243 246 251 246 243 235 229 224 222 221
111 110 106 97 90 87 81 57 359 339 324 324 324 322 324 325 314 321 317 316 319 309 301 301 294 283 272 260 259 257 257 254 250 248 247 244 240 241 245 243 238 225 220 214 215
119 118 110 105 90 62 35 2 332 322 328 320 321 314 310 310 309 311 314 313 307 303 298 300 306 296 285 269 259 254 257 255 252 251 246 243 239 236 239 242 240 232 219 216 216
129 125 116 104 87 41 357 345 333 333 328 329 324 317 312 307 304 302 304 304 304 300 291 291 296 296 296 286 263 254 251 255 255 255 251 246 242 233 232 235 237 235 227 217 217
168 168 175 222 270 293 319 323 323 321 321 318 318 319 319 315 307 301 297 296 297 301 297 297 304 307 304 291 272 256 249 250 251 252 250 249 246 236 234 231 234 229 227 222 217
212 225 236 257 264 279 293 300 305 308 311 313 313 314 314 313 309 298 296 292 296 295 298 297 297 305 304 297 284 258 251 245 247 249 249 247 247 240 235 231 230 230 226 226 220
235 247 261 269 273 279 287 293 297 299 304 308 308 307 308 308 306 302 296 290 289 290 293 293 295 294 298 298 291 268 252 251 248 247 248 248 245 244 239 236 233 230 225 224 222
251 258 265 269 275 280 286 291 293 298 302 303 304 304 305 304 304 302 297 294 288 286 289 292 290 287 288 294 295 276 256 246 249 251 249 248 243 242 240 239 237 235 231 225 222
258 265 273 277 278 282 288 292 294 298 299 300 300 300 302 302 300 300 296 295 290 287 285 288 287 287 284 287 288 281 262 250 247 251 250 249 244 238 239 240 239 238 233 229 225
266 273 276 281 284 286 289 291 294 296 297 299 300 300 300 299 299 299 296 294 292 289 286 287 287 283 281 286 282 284 268 251 243 246 250 254 248 243 243 242 238 235 234 231 226
272 275 279 283 286 289 291 292 294 294 295 297 298 299 298 298 297 295 293 291 289 289 288 287 282 279 279 280 288 276 268 256 246 240 244 250 253 246 245 241 238 236 236 233 230
276 279 282 286 289 291 292 293 293 294 295 296 296 297 297 297 295 293 292 290 288 289 285 285 281 277 276 274 276 269 267 259 250 242 246 252 255 250 246 245 241 237 238 238 233
279 282 285 288 290 292 293 294 294 294 294 294 296 296 296 296 294 294 293 289 286 283 282 280 277 274 271 271 272 269 261 256 254 240 240 246 248 251 248 247 245 244 241 239 236
282 284 287 289 291 293 294 295 295 295 295 296 296 295 293 293 294 293 291 288 285 281 277 273 271 270 268 269 269 271 254 247 244 237 233 241 247 252 250 247 251 248 241 238 234
Height
10893 10896 10899 10901 10904 10908 10911 10916 10921 10925 10929 10934 10939 10943 10945 10946 10950 10952 10955 10957 10958 10959 10963 10967 10970 10971 10974 10976 10978 10979 10981 10982 10983 10984 10984 10985 10985 10987 10986 10985 10984 10981 10979 10975 10968
10891 10893 10896 10898 10901 10905 10908 10912 10916 10920 10924 10929 10933 10937 10939 10942 10944 10946 10948 10950 10952 10952 10957 10962 10964 10966 10969 10971 10974 10974 10976 10979 10978 10980 10981 10982 10984 10986 10985 10985 10983 10981 10980 10976 10971
10889 10891 10894 10896 10899 10903 10906 10909 10913 10917 10920 10925 10929 10932 10934 10936 10938 10940 10941 10943 10945 10944 10951 10956 10957 10960 10962 10965 10968 10970 10971 10973 10975 10975 10977 10978 10982 10983 10984 10984 10983 10981 10981 10976 10973
10888 10890 10893 10895 10898 10902 10904 10908 10911 10914 10918 10921 10925 10927 10929 10931 10933 10934 10935 10936 10937 10938 10943 10949 10950 10953 10955 10958 10961 10964 10966 10967 10970 10972 10973 10976 10979 10980 10981 10981 10981 10981 10980 10978 10975
10887 10889 10892 10895 10898 10901 10904 10906 10910 10913 10916 10919 10922 10924 10926 10927 10928 10929 10930 10930 10930 10931 10934 10940 10944 10946 10947 10950 10953 10957 10959 10961 10964 10966 10971 10971 10974 10976 10978 10978 10979 10980 10979 10978 10977
10885 10888 10891 10894 10897 10900 10903 10906 10909 10912 10914 10917 10919 10921 10923 10924 10925 10926 10926 10926 10925 10926 10927 10931 10936 10939 10940 10942 10946 10948 10950 10954 10957 10960 10964 10968 10969 10971 10974 10975 10976 10977 10978 10977 10977
10883 10887 10890 10893 10896 10899 10902 10905 10908 10911 10913 10915 10917 10918 10920 10921 10922 10923 10923 10923 10922 10923 10922 10924 10927 10929 10932 10934 10937 10940 10942 10946 10949 10953 10957 10961 10964 10967 10970 10972 10973 10975 10975 10975 10977
10881 10885 10889 10892 10896 10899 10902 10905 10908 10910 10911 10913 10915 10917 10919 10919 10919 10920 10920 10920 10919 10919 10919 10919 10920 10922 10924 10927 10928 10931 10934 10937 10940 10944 10948 10953 10957 10960 10964 10967 10969 10971 10972 10974 10975
10879 10884 10888 10892 10895 10898 10902 10904 10907 10908 10910 10912 10913 10914 10915 10916 10916 10916 10916 10916 10916 10915 10915 10915 10915 10916 10918 10920 10922 10923 10925 10927 10932 10935 10939 10945 10948 10951 10957 10962 10965 10966 10969 10970 10973
10878 10884 10889 10892 10895 10899 10902 10904 10907 10908 10910 10911 10911 10912 10913 10913 10913 10913 10913 10913 10912 10912 10911 10911 10911 10911 10912 10913 10915 10916 10918 10920 10922 10926 10929 10935 10939 10943 10948 10954 10959 10962 10964 10966 10970
10880 10885 10889 10893 10897 10900 10903 10905 10907 10908 10909 10910 10911 10911 10910 10910 10912 10911 10911 10910 10909 10908 10907 10907 10906 10906 10907 10907 10909 10910 10911 10913 10915 10917 10920 10923 10928 10931 10937 10944 10951 10955 10957 10960 10964
10883 10887 10892 10896 10899 10902 10904 10905 10907 10908 10909 10909 10910 10910 10908 10908 10908 10908 10907 10907 10905 10904 10902 10903 10903 10903 10902 10902 10902 10903 10904 10906 10908 10909 10911 10914 10918 10922 10927 10934 10941 10946 10950 10952 10956
10888 10891 10895 10898 10901 10902 10904 10905 10906 10907 10907 10908 10908 10908 10907 10906 10905 10904 10903 10902 10901 10900 10898 10898 10898 10898 10898 10897 10897 10897 10896 10898 10900 10901 10904 10906 10910 10913 10917 10923 10930 10935 10941 10945 10948
10892 10895 10897 10899 10901 10903 10905 10906 10906 10907 10907 10907 10906 10906 10905 10904 10902 10900 10899 10898 10896 10895 10893 10892 10891 10892 10893 10892 10892 10891 10891 10891 10891 10893 10895 10899 10903 10906 10910 10913 10920 10926 10932 10938 10941
10895 10897 10899 10900 10902 10903 10904 10905 10905 10905 10906 10905 10904 10903 10903 10902 10900 10898 10896 10894 10892 10890 10888 10887 10886 10885 10886 10885 10887 10885 10886 10886 10886 10887 10889 10891 10894 10898 10901 10906 10911 10918 10923 10928 10933
10896 10898 10900 10901 10902 10902 10903 10903 10903 10903 10903 10902 10901 10900 10898 10897 10896 10894 10893 10891 10888 10885 10883 10881 10880 10878 10879 10878 10879 10879 10879 10879 10879 10881 10883 10883 10886 10889 10893 10897 10903 10908 10913 10918 10924
10897 10898 10899 10900 10900 10900 10900 10900 10900 10899 10899 10899 10898 10896 10894 10892 10890 10889 10887 10886 10884 10881 10878 10876 10874 10871 10870 10869 10869 10870 10871 10871 10872 10873 10876 10876 10879 10884 10886 10889 10894 10900 10904 10910 10914
10896 10897 10898 10898 10898 10898 10898 10896 10895 10894 10893 10892 10892 10890 10889 10886 10885 10882 10880 10878 10877 10874 10872 10868 10866 10863 10861 10859 10858 10859 10861 10863 10863 10863 10868 10870 10873 10878 10878 10882 10885 10891 10895 10899 10905
10895 10895 10895 10895 10895 10895 10894 10892 10890 10888 10887 10885 10885 10883 10881 10878 10876 10874 10872 10869 10868 10865 10863 10860 10858 10855 10851 10849 10847 10847 10848 10852 10853 10855 10858 10862 10867 10869 10872 10875 10877 10882 10887 10891 10896
10891 10891 10891 10891 10890 10890 10889 10888 10885 10882 10880 10877 10875 10874 10872 10869 10867 10865 10864 10861 10859 10856 10853 10851 10850 10847 10844 10840 10839 10838 10839 10841 10843 10844 10848 10853 10859 10861 10865 10867 10869 10873 10878 10883 10889
10886 10886 10885 10885 10885 10884 10883 10881 10878 10874 10872 10870 10866 10862 10861 10859 10856 10853 10851 10850 10849 10847 10844 10841 10841 10840 10836 10833 10831 10828 10828 10832 10834 10835 10838 10841 10848 10852 10856 10860 10862 10864 10869 10874 10879
10880 10880 10879 10878 10877 10876 10874 10872 10869 10865 10862 10860 10857 10853 10849 10846 10844 10841 10838 10835 10835 10835 10835 10830 10829 10828 10826 10825 10822 10819 10819 10822 10825 10829 10828 10829 10838 10844 10847 10851 10854 10856 10860 10864 10870
10873 10872 10871 10869 10868 10866 10863 10860 10858 10855 10850 10846 10844 10841 10837 10834 10830 10826 10823 10821 10819 10819 10821 10820 10818 10814 10815 10815 10813 10812 10810 10812 10815 10818 10818 10819 10826 10832 10836 10840 10843 10848 10851 10855 10859
10865 10863 10861 10859 10856 10854 10851 10847 10845 10842 10839 10835 10831 10826 10823 10820 10817 10813 10805 10803 10800 10800 10801 10804 10803 10802 10801 10802 10803 10801 10800 10800 10804 10808 10807 10809 10816 10821 10825 10829 10832 10837 10841 10845 10849
10855 10852 10850 10847 10843 10840 10838 10834 10830 10827 10822 10820 10817 10813 10808 10803 10800 10796 10792 10786 10781 10781 10780 10784 10787 10786 10788 10789 10790 10792 10789 10790 10792 10796 10800 10801 10804 10810 10814 10818 10821 10826 10830 10834 10838
10843 10841 10838 10835 10831 10826 10822 10818 10815 10811 10807 10804 10799 10796 10791 10787 10782 10775 10774 10769 10765 10766 10762 10762 10768 10766 10774 10772 10776 10780 10778 10779 10782 10784 10789 10790 10792 10798 10804 10807 10810 10815 10819 10823 10828
10831 10828 10826 10822 10817 10813 10807 10802 10796 10792 10787 10785 10782 10777 10774 10769 10764 10757 10755 10748 10746 10745 10745 10746 10747 10748 10756 10755 10759 10767 10766 10766 10769 10772 10777 10782 10781 10789 10793 10798 10801 10804 10807 10811 10816